(306684) = 2000 TU69 = 2000 UC18

Discovered at Socorro on 2000-10-24 by LINEAR.

Orbit

Orbit type: Main Belt

Note: WebGL enabled browser required.

epoch2023-09-13.0
epoch JD2460200.5
perihelion date2024-10-25.05117
perihelion JD2460608.55117
argument of perihelion (°)294.57362
ascending node (°)79.89483
inclination (°)6.91863
eccentricity0.1145669
perihelion distance (AU)2.2427216
Tisserand w.r.t. Jupiter3.4
ΔV w.r.t. Earth (km/sec)9.6
semimajor axis (AU)2.5329090
mean anomaly (°)260.23250
mean daily motion (°/day)0.24449750
aphelion distance (AU)2.823
period (years)4.03
P-vector [x]0.96176586
P-vector [y]0.27387221
P-vector [z]-0.00066393
Q-vector [x]-0.24686560
Q-vector [y]0.86797051
Q-vector [z]0.43091132
absolute magnitude16.35
phase slope0.15
uncertainty0
referenceMPEC 2023-N34
observations used726
oppositions16
arc length (days)11190
first opposition used1992
last opposition used2023
residual rms (arc-secs)0.72
perturbers coarse indicatorM-v
perturbers precise indicator003Ek
first observation date used1992-11-16.0
last observation date used2023-07-07.0
computer nameMPCLINUX
JD of orbit computation2456731.612951
perihelion JD uncertainty (days)3.9525E-04
argument of perihelion uncertainty (°)1.4457E-04
ascending node uncertainty (°)1.0399E-04
inclination uncertainty (°)8.7769E-06
eccentricity uncertainty 7.2624E-07
perihelion distance uncertainty (AU)1.8591E-06
Minimum Orbit Intersection Distances (in AU)
for orbit epoch: 2460000.5, reference: E2023-M76
Mercury1.88884
Venus1.51945
Earth1.25353
Mars0.82023
Jupiter2.64582
Saturn6.54687
Uranus15.6648
Neptune27.5999

Observations

735 total observations over interval: 1992 11 16.29546 – 2023 07 07.351509
These data are available for download (format description).

Date (UT) J2000 RA J2000 Dec Magn Location Ref
1992 11 16.29546 03 05 36.30 +11 07 08.2 19.2 V 691 – Steward Observatory, Kitt Peak-Spacewatch MPS 118305
1992 11 16.31769 03 05 34.91 +11 07 08.1   691 – Steward Observatory, Kitt Peak-Spacewatch MPS 118305
1992 11 16.33987 03 05 33.54 +11 07 07.8   691 – Steward Observatory, Kitt Peak-Spacewatch MPS 118305
2000 10 02.41492 02 55 42.41 +07 23 30.5 18.6   704 – Lincoln Laboratory ETS, New Mexico MPC 42231
2000 10 02.42998 02 55 42.01 +07 23 28.3 19.0   704 – Lincoln Laboratory ETS, New Mexico MPC 42231
2000 10 02.44625 02 55 41.47 +07 23 27.1 19.3   704 – Lincoln Laboratory ETS, New Mexico MPC 42231
2000 10 02.46192 02 55 41.10 +07 23 23.8 19.4   704 – Lincoln Laboratory ETS, New Mexico MPC 42231
2000 10 02.47694 02 55 40.65 +07 23 21.6 19.4   704 – Lincoln Laboratory ETS, New Mexico MPC 42231
2000 10 24.39923 02 39 31.60 +06 31 17.5 19.5   704 – Lincoln Laboratory ETS, New Mexico MPS 21553
2000 10 24.41794 02 39 30.47 +06 31 16.2 19.2   704 – Lincoln Laboratory ETS, New Mexico MPS 21553
2000 10 24.43283 02 39 29.65 +06 31 12.4 19.5   704 – Lincoln Laboratory ETS, New Mexico MPS 21553
2000 10 24.44632 02 39 29.00 +06 31 11.8 19.2   704 – Lincoln Laboratory ETS, New Mexico MPS 21553
2000 10 30.31433 02 33 48.07 +06 19 49.9 19.1   704 – Lincoln Laboratory ETS, New Mexico MPS 21553
2000 10 30.32864 02 33 47.25 +06 19 48.0 19.3   704 – Lincoln Laboratory ETS, New Mexico MPS 21553
2000 10 30.34260 02 33 46.43 +06 19 46.7 19.2   704 – Lincoln Laboratory ETS, New Mexico MPS 21553
2000 10 30.35690 02 33 45.59 +06 19 45.6 19.5   704 – Lincoln Laboratory ETS, New Mexico MPS 21553
2000 10 30.37230 02 33 44.73 +06 19 42.7 19.6   704 – Lincoln Laboratory ETS, New Mexico MPS 21553
2000 11 02.29189 02 30 52.53 +06 15 12.3 19.0   704 – Lincoln Laboratory ETS, New Mexico MPS 21553
2000 11 02.29347 02 30 52.26 +06 15 12.4 18.8   704 – Lincoln Laboratory ETS, New Mexico MPS 21553
2000 11 02.30642 02 30 51.56 +06 15 11.9 19.2   704 – Lincoln Laboratory ETS, New Mexico MPS 21553
2000 11 02.30796 02 30 51.44 +06 15 11.2 19.5   704 – Lincoln Laboratory ETS, New Mexico MPS 21553
2000 11 02.32097 02 30 50.60 +06 15 10.8 19.3   704 – Lincoln Laboratory ETS, New Mexico MPS 21553
2000 11 02.33525 02 30 49.77 +06 15 10.1 19.1   704 – Lincoln Laboratory ETS, New Mexico MPS 21553
2000 11 02.34966 02 30 48.92 +06 15 08.5 19.4   704 – Lincoln Laboratory ETS, New Mexico MPS 21553
2000 11 02.35118 02 30 48.78 +06 15 07.8 19.4   704 – Lincoln Laboratory ETS, New Mexico MPS 21553
2002 03 11.33716 10 51 09.40 +18 43 34.4 21.1   644 – Palomar Mountain/NEAT MPS 118305
2002 03 11.34177 10 51 09.14 +18 43 34.9 20.4   644 – Palomar Mountain/NEAT MPS 118305
2002 03 11.34759 10 51 08.87 +18 43 37.0 21.3   644 – Palomar Mountain/NEAT MPS 118305
2002 03 11.35221 10 51 08.59 +18 43 37.9 20.3   644 – Palomar Mountain/NEAT MPS 118305
2002 03 11.35819 10 51 08.26 +18 43 39.2 20.8   644 – Palomar Mountain/NEAT MPS 118305
2002 03 11.36284 10 51 08.03 +18 43 40.6 20.2   644 – Palomar Mountain/NEAT MPS 118305
2004 09 24.37144 02 39 35.06 +05 32 39.1 19.7   704 – Lincoln Laboratory ETS, New Mexico MPS 118305
2004 09 24.38357 02 39 34.84 +05 32 37.5 19.5   704 – Lincoln Laboratory ETS, New Mexico MPS 118305
2004 09 24.39570 02 39 34.46 +05 32 34.9 19.7   704 – Lincoln Laboratory ETS, New Mexico MPS 118305
2004 10 05.31082 02 34 10.44 +05 02 16.0 18.9 R 699 – Lowell Observatory-LONEOS MPS 116454
2004 10 05.33030 02 34 09.46 +05 02 13.2   699 – Lowell Observatory-LONEOS MPS 116454
2004 10 05.34976 02 34 08.67 +05 02 10.3   699 – Lowell Observatory-LONEOS MPS 116454
2004 10 05.36921 02 34 07.90 +05 02 05.2   699 – Lowell Observatory-LONEOS MPS 116454
2004 10 07.25516 02 32 51.70 +04 56 28.6 18.8 R 699 – Lowell Observatory-LONEOS MPS 116454
2004 10 07.27459 02 32 50.81 +04 56 24.3   699 – Lowell Observatory-LONEOS MPS 116454
2004 10 07.29403 02 32 50.01 +04 56 20.0   699 – Lowell Observatory-LONEOS MPS 116454
2004 10 07.31347 02 32 49.20 +04 56 16.3   699 – Lowell Observatory-LONEOS MPS 116454
2004 10 07.34780 02 32 47.65 +04 56 08.3 19.8   704 – Lincoln Laboratory ETS, New Mexico MPS 118305
2004 10 07.35904 02 32 47.17 +04 56 05.5 19.5   704 – Lincoln Laboratory ETS, New Mexico MPS 118305
2004 10 07.37032 02 32 46.79 +04 56 04.9 20.3   704 – Lincoln Laboratory ETS, New Mexico MPS 118305
2004 10 09.26773 02 31 24.31 +04 50 23.8 19.3   704 – Lincoln Laboratory ETS, New Mexico MPS 118305
2004 10 09.27913 02 31 23.82 +04 50 21.5 19.1   704 – Lincoln Laboratory ETS, New Mexico MPS 118305
2004 10 09.29051 02 31 23.25 +04 50 19.7 20.2   704 – Lincoln Laboratory ETS, New Mexico MPS 118305
2004 10 09.30217 02 31 22.70 +04 50 17.7 19.6   704 – Lincoln Laboratory ETS, New Mexico MPS 118305
2004 10 15.40495 02 26 25.23 +04 32 09.9 18.7 R 699 – Lowell Observatory-LONEOS MPS 117498
2004 10 15.41467 02 26 24.75 +04 32 08.7   699 – Lowell Observatory-LONEOS MPS 117498
2004 10 15.42440 02 26 24.11 +04 32 06.4   699 – Lowell Observatory-LONEOS MPS 117498
2004 10 15.43415 02 26 23.62 +04 32 04.7   699 – Lowell Observatory-LONEOS MPS 117498
2006 03 03.22613 10 44 33.89 +19 19 56.2 19.8 R 699 – Lowell Observatory-LONEOS MPS 165926
2006 03 03.25170 10 44 32.33 +19 20 05.3   699 – Lowell Observatory-LONEOS MPS 165926
2006 03 03.27729 10 44 30.86 +19 20 12.4   699 – Lowell Observatory-LONEOS MPS 165926
2006 03 03.31207 10 44 29.00 +19 20 23.5   699 – Lowell Observatory-LONEOS MPS 165926
2008 09 23.30831 02 18 15.74 +03 04 26.4 19.3   704 – Lincoln Laboratory ETS, New Mexico MPS 256518
2008 09 23.32027 02 18 15.39 +03 04 24.1 19.1   704 – Lincoln Laboratory ETS, New Mexico MPS 256518
2008 09 23.33219 02 18 15.03 +03 04 22.1 19.5   704 – Lincoln Laboratory ETS, New Mexico MPS 256518
2008 09 23.34414 02 18 14.73 +03 04 19.4 19.5   704 – Lincoln Laboratory ETS, New Mexico MPS 256518
2008 09 29.29065 02 15 06.29 +02 43 47.0 19.3   704 – Lincoln Laboratory ETS, New Mexico MPS 257741
2008 09 29.30293 02 15 05.77 +02 43 44.8 19.2   704 – Lincoln Laboratory ETS, New Mexico MPS 257741
2008 09 29.31523 02 15 05.28 +02 43 41.2 19.6   704 – Lincoln Laboratory ETS, New Mexico MPS 257741
2008 09 29.32751 02 15 04.82 +02 43 39.6 19.8   704 – Lincoln Laboratory ETS, New Mexico MPS 257741
2008 09 29.33979 02 15 04.34 +02 43 36.2 19.4   704 – Lincoln Laboratory ETS, New Mexico MPS 257741
2008 10 06.37907 02 10 09.01 +02 18 15.1 19.0 V G96 – Mt. Lemmon Survey MPS 259086
2008 10 06.38852 02 10 08.54 +02 18 13.0 19.1 V G96 – Mt. Lemmon Survey MPS 259086
2008 10 06.39792 02 10 08.07 +02 18 11.0 19.1 V G96 – Mt. Lemmon Survey MPS 259086
2008 10 06.40735 02 10 07.60 +02 18 09.1 19.0 V G96 – Mt. Lemmon Survey MPS 259086
2008 10 21.35132 01 56 52.51 +01 30 50.6 18.8 V G96 – Mt. Lemmon Survey MPS 260489
2008 10 21.35651 01 56 52.18 +01 30 49.9 18.8 V G96 – Mt. Lemmon Survey MPS 260489
2008 10 21.36176 01 56 51.90 +01 30 48.7 18.7 V G96 – Mt. Lemmon Survey MPS 260489
2008 10 21.36694 01 56 51.57 +01 30 47.8 18.7 V G96 – Mt. Lemmon Survey MPS 260489
2008 10 24.25879 01 54 06.88 +01 24 03.6 18.9   704 – Lincoln Laboratory ETS, New Mexico MPS 261264
2008 10 24.27027 01 54 06.17 +01 24 03.0 19.0   704 – Lincoln Laboratory ETS, New Mexico MPS 261264
2008 10 24.28187 01 54 05.46 +01 24 01.5 19.1   704 – Lincoln Laboratory ETS, New Mexico MPS 261264
2008 10 24.29337 01 54 04.77 +01 23 59.6 19.1   704 – Lincoln Laboratory ETS, New Mexico MPS 261264
2008 10 24.30504 01 54 04.12 +01 23 57.8 19.6   704 – Lincoln Laboratory ETS, New Mexico MPS 261264
2008 10 25.24653 01 53 10.69 +01 22 01.1 18.6   704 – Lincoln Laboratory ETS, New Mexico MPS 261264
2008 10 25.25804 01 53 10.01 +01 22 00.1 19.3   704 – Lincoln Laboratory ETS, New Mexico MPS 261264
2008 10 25.26961 01 53 09.38 +01 21 57.8 19.3   704 – Lincoln Laboratory ETS, New Mexico MPS 261264
2008 10 25.29265 01 53 07.95 +01 21 56.0 19.3   704 – Lincoln Laboratory ETS, New Mexico MPS 261264
2008 10 29.29001 01 49 23.66 +01 15 08.7 18.9 V 703 – Catalina Sky Survey MPS 261264
2008 10 29.29675 01 49 23.34 +01 15 09.1 18.9 V 703 – Catalina Sky Survey MPS 261264
2008 10 29.30345 01 49 22.90 +01 15 08.1 18.6 V 703 – Catalina Sky Survey MPS 261264
